Cloud_Cover
0 0 5 0 4 100 69 16 17 53 89 35 29 97 100 100 32 90 100 48 76 81 98 66 29 33 82 12 95 100 100 98 51 10 9 12 7 42 7 82 26 100 90
2 0 0 0 5 25 100 100 98 99 100 90 74 24 100 99 92 6 100 91 71 77 98 100 94 67 44 62 90 10 6 83 91 98 10 99 100 5 99 100 100 100 100
0 0 5 4 5 4 5 23 82 100 82 100 87 30 84 78 84 48 16 15 52 7 71 12 94 99 100 51 38 28 16 88 100 100 68 94 100 100 100 100 96 100 100
0 0 5 5 5 6 0 3 34 76 96 4 75 70 100 48 22 27 5 98 100 91 58 57 44 68 82 44 9 5 78 14 33 36 73 21 100 100 100 100 100 100 100
5 5 5 74 94 68 5 0 5 19 7 2 1 22 62 5 5 5 100 100 92 100 100 89 100 100 100 100 92 27 19 66 89 87 19 94 100 100 100 100 100 100 100
100 7 38 83 99 85 58 6 1 0 0 0 0 0 0 1 0 0 20 10 100 90 100 100 100 100 100 100 100 100 100 100 100 100 96 80 100 100 100 100 100 100 100
100 64 9 5 76 100 100 96 60 5 5 1 0 0 0 0 1 0 15 53 35 89 100 6 83 100 100 100 100 98 100 100 100 100 100 100 100 100 100 100 100 100 100
100 100 100 68 64 88 100 100 100 70 44 30 11 0 0 4 46 74 97 98 21 71 76 5 5 5 35 100 100 63 84 57 100 100 100 100 100 100 100 100 100 100 100
100 100 100 100 100 100 100 100 100 100 100 95 100 98 100 82 100 100 100 100 100 100 100 100 89 89 100 97 95 69 100 44 5 61 100 100 100 100 100 100 100 100 100
100 100 95 99 100 100 100 100 100 100 100 100 100 100 100 100 100 100 100 100 100 100 100 100 100 100 100 100 65 92 89 49 53 84 98 96 100 96 97 100 98 100 100
100 100 100 100 100 100 100 100 100 100 100 100 100 100 100 100 100 100 100 100 100 100 100 100 100 100 100 100 100 99 18 99 96 100 100 94 97 100 100 100 100 100 100
100 100 100 100 100 100 100 100 100 100 100 100 100 100 100 100 100 100 100 100 100 100 100 100 100 100 100 100 100 100 100 100 100 100 100 100 100 100 100 100 100 100 100
100 100 100 100 100 100 100 100 100 100 100 100 100 100 100 100 100 100 100 100 100 100 100 100 100 100 100 100 100 100 100 100 100 100 100 100 100 100 96 100 100 100 100
100 100 100 100 100 100 100 100 100 100 100 100 100 100 100 100 100 100 100 100 100 100 100 100 100 100 100 99 100 100 100 100 100 100 100 91 95 95 99 100 100 100 100
100 100 100 100 100 99 100 100 100 100 100 100 100 100 100 100 100 100 100 100 100 100 100 100 100 100 100 100 100 100 100 100 100 100 100 96 100 100 100 100 96 100 100
100 100 100 100 100 100 73 100 100 100 100 100 100 100 100 100 100 100 100 100 100 100 100 100 100 100 100 100 100 100 100 100 100 90 100 100 100 100 100 100 100 100 100
100 100 100 100 100 100 100 100 100 100 100 100 100 100 98 99 100 100 100 100 100 100 100 100 100 100 100 100 100 100 100 100 100 100 100 100 100 100 100 100 100 100 100
100 100 100 100 100 100 100 100 100 100 100 64 83 77 98 100 100 100 100 100 94 91 28 45 100 100 100 100 100 100 100 100 100 100 100 100 100 100 100 100 100 100 100
8 88 100 100 100 100 100 100 100 100 100 100 99 70 100 100 100 100 100 1 3 5 46 100 100 100 100 100 100 100 92 78 94 90 84 86 100 100 100 100 100 100 100
7 20 14 5 44 79 6 22 30 44 8 2 45 7 3 1 1 1 2 4 4 0 2 4 19 67 87 100 100 100 100 74 8 5 43 58 66 46 100 100 100 100 100
3 2 0 0 0 1 4 3 99 39 100 4 0 0 0 0 0 0 0 0 0 0 0 6 14 7 6 3 5 14 49 5 11 5 9 5 5 5 75 69 94 100 100
0 0 2 2 0 0 0 0 0 0 1 0 0 0 0 6 0 0 0 0 0 0 0 0 10 12 13 9 0 0 0 0 4 4 5 6 5 2 9 34 3 2 67
0 0 0 0 0 0 0 0 0 0 0 0 0 0 0 0 0 0 0 0 0 0 2 2 0 2 10 3 0 0 0 0 0 0 0 0 0 5 5 5 4 0 0
0 0 0 0 0 0 0 0 0 0 0 0 0 0 2 4 4 12 5 3 0 0 0 0 0 0 0 8 1 0 0 0 0 0 0 0 0 0 0 2 5 0 0
0 0 0 0 0 0 0 0 0 0 0 0 0 0 4 66 16 57 93 15 6 76 17 6 4 2 0 5 5 4 4 0 0 0 0 0 0 0 0 0 0 0 0
0 0 0 0 0 0 4 0 0 0 0 0 0 0 0 48 7 91 97 76 5 97 100 21 8 7 20 5 5 26 43 5 5 5 4 0 0 0 0 0 0 0 0